Guadalupe Pass, TX

3:21 AM MST on November 19, 2017 (GMT -0700)
Guadalupe Pass

Weather History for KGDP - August, 2013

Change the Weather History Date:

Saturday, August 17, 2013

  Actual Average Record
Temperature  
Mean Temperature 78 °F -  
Max Temperature 93 °F 83 °F 98 °F (2010)
Min Temperature 66 °F 64 °F 57 °F (1996)
Cooling Degree Days 13    
Growing Degree Days 28 (Base 50)    
Moisture  
Dew Point 50 °F    
Average Humidity 40    
Maximum Humidity 63    
Minimum Humidity 21    
Precipitation  
Precipitation 0.01 in - - ()
Sea Level Pressure  
Sea Level Pressure 29.98 in    
Wind  
Wind Speed 16 mph (NE)    
Max Wind Speed 26 mph    
Max Gust Speed 31 mph    
Visibility 9 miles    
Events      
Averages and records for this station are not official NWS values.
T = Trace of Precipitation, MM = Missing Value Source: NWS Daily Summary

Daily Weather History Graph

Daily Weather History Graph

Search for Another Location

Airport or City:

Trip Planner

Search our weather history database for the weather conditions in past years. The results will help you decide how hot, cold, wet, or windy it might be!

Date:

Astronomy

Aug. 17, 2013 Rise Set
Actual Time 6:25 AM MDT 7:40 PM MDT
Civil Twilight 5:59 AM MDT 8:05 PM MDT
Nautical Twilight 5:29 AM MDT 8:36 PM MDT
Astronomical Twilight 4:57 AM MDT 9:07 PM MDT
Moon 4:52 PM MDT (8/17) 2:38 AM MDT (8/17)
Length of Visible Light 14h 05m
Length of Day
13h 14m
Waxing Gibbous, 85% of the Moon is Illuminated
Aug 17
Waxing Gibbous
Aug 20
Full
Aug 28
Last Quarter
Sep 5
New
Sep 12
First Quarter

Hourly Weather History & Observations

Time (MDT) Temp. Dew Point Humidity Pressure Visibility Wind Dir Wind Speed Gust Speed Precip Events Conditions
12:51 AM 73.0 °F 54.0 °F 51% 30.01 in 10.0 mi NE 21.9 mph - N/A   Clear
1:51 AM 72.0 °F 54.0 °F 53% 30.00 in 10.0 mi NE 23.0 mph - N/A   Clear
2:51 AM 70.0 °F 54.0 °F 57% 29.98 in 10.0 mi ENE 25.3 mph - N/A   Clear
3:51 AM 68.0 °F 54.0 °F 61% 29.98 in 9.0 mi NE 26.5 mph - N/A   Clear
4:51 AM 66.9 °F 54.0 °F 63% 29.99 in 9.0 mi NE 17.3 mph - N/A   Clear
5:51 AM 68.0 °F 54.0 °F 61% 30.00 in 9.0 mi NE 11.5 mph - N/A   Clear
6:51 AM 71.1 °F 53.1 °F 53% 30.01 in 8.0 mi East 3.5 mph - N/A   Clear
7:51 AM 73.0 °F 53.1 °F 49% 30.03 in 8.0 mi SW 5.8 mph - N/A   Clear
8:51 AM 75.9 °F 52.0 °F 43% 30.04 in 8.0 mi SSW 3.5 mph - N/A   Clear
9:51 AM 78.1 °F 53.1 °F 42% 30.04 in 8.0 mi WSW 8.1 mph - N/A   Clear
10:51 AM 82.0 °F 50.0 °F 33% 30.04 in 9.0 mi SW 12.7 mph - N/A   Clear
11:51 AM 87.1 °F 50.0 °F 28% 30.01 in 9.0 mi SW 13.8 mph 24.2 mph N/A   Clear
12:51 PM 89.1 °F 48.0 °F 24% 29.98 in 9.0 mi West 13.8 mph 23.0 mph N/A   Clear
1:51 PM 89.1 °F 48.0 °F 24% 29.96 in 9.0 mi WSW 9.2 mph - N/A   Clear
2:51 PM 90.0 °F 45.0 °F 21% 29.94 in 9.0 mi Variable 5.8 mph - N/A   Clear
3:51 PM 80.1 °F 48.0 °F 32% 29.98 in 8.0 mi Variable 6.9 mph 31.1 mph 0.01 in   Overcast
4:51 PM 79.0 °F 44.1 °F 29% 29.97 in 8.0 mi WNW 9.2 mph - 0.00 in   Partly Cloudy
5:51 PM 82.0 °F 46.0 °F 28% 29.95 in 8.0 mi North 6.9 mph - N/A   Partly Cloudy
6:51 PM 80.1 °F 46.0 °F 30% 29.93 in 8.0 mi NE 11.5 mph - 0.00 in   Clear
7:51 PM 77.0 °F 46.9 °F 34% 29.95 in 9.0 mi NE 15.0 mph - N/A   Clear
8:51 PM 77.0 °F 48.0 °F 36% 29.95 in 10.0 mi NE 16.1 mph - N/A   Clear
9:51 PM 75.9 °F 48.9 °F 38% 29.97 in 10.0 mi NE 15.0 mph - N/A   Clear
10:51 PM 78.1 °F 48.0 °F 35% 29.96 in 10.0 mi NE 15.0 mph - N/A   Clear
11:51 PM 75.9 °F 48.9 °F 38% 29.95 in 10.0 mi NE 19.6 mph - N/A   Clear